Weather History for Falls City, NE

Change the Weather History Date:

Friday, March 1, 2013

  Actual Average Record
Temperature  
Mean Temperature 27 °F -  
Max Temperature 28 °F 50 °F 79 °F (1972)
Min Temperature 25 °F 25 °F -11 °F (1962)
Degree Days  
Heating Degree Days 38    
Moisture  
Dew Point 20 °F    
Average Humidity 73    
Maximum Humidity 81    
Minimum Humidity 66    
Precipitation  
Precipitation 0.00 in - - ()
Sea Level Pressure  
Sea Level Pressure 30.29 in    
Wind  
Wind Speed 11 mph (NNW)    
Max Wind Speed 15 mph    
Max Gust Speed 21 mph    
Visibility 7 miles    
Events Snow    
Averages and records for this station are not official NWS values.
T = Trace of Precipitation, MM = Missing Value Source: NWS Daily Summary

Daily Weather History Graph

Daily Weather History Graph

Search for Another Location

Airport:

Trip Planner

Search our weather history database for the weather conditions in past years. The results will help you decide how hot, cold, wet, or windy it might be!

Date:

Astronomy

Mar. 01, 2013 Rise Set
Actual Time 6:55 AM CST 6:14 PM CST
Civil Twilight 6:28 AM CST 6:41 PM CST
Nautical Twilight 5:56 AM CST 7:13 PM CST
Astronomical Twilight 5:25 AM CST 7:44 PM CST
Moon 10:49 PM CST (3/1) 8:42 AM CST (3/1)
Length of Visible Light 12h 13m
Length of Day
11h 19m
Waning Gibbous, 83% of the Moon is Illuminated
Mar 1
Waning Gibbous
Mar 4
Last Quarter
Mar 11
New
Mar 19
First Quarter
Mar 27
Full

Hourly Weather History & Observations

Time (CST) Temp. Windchill Dew Point Humidity Pressure Visibility Wind Dir Wind Speed Gust Speed Precip Events Conditions
12:53 AM 27.0 °F 16.1 °F 19.9 °F 75% 30.25 in 10.0 mi NW 12.7 mph - N/A   Overcast
1:53 AM 27.0 °F 16.1 °F 19.9 °F 75% 30.24 in 10.0 mi NNW 12.7 mph - N/A   Overcast
2:53 AM 27.0 °F 17.3 °F 19.9 °F 75% 30.24 in 10.0 mi NNW 10.4 mph - N/A   Overcast
3:53 AM 26.1 °F 16.8 °F 19.9 °F 78% 30.24 in 10.0 mi NNW 9.2 mph - N/A   Overcast
4:53 AM 26.1 °F 15.6 °F 19.0 °F 75% 30.25 in 10.0 mi NW 11.5 mph 19.6 mph N/A   Overcast
5:53 AM 26.1 °F 16.2 °F 19.0 °F 75% 30.26 in 10.0 mi NNW 10.4 mph - 0.00 in   Overcast
6:53 AM 26.1 °F 17.6 °F 19.0 °F 75% 30.26 in 9.0 mi NNW 8.1 mph - 0.00 in Snow Light Snow
7:53 AM 26.1 °F 16.8 °F 19.0 °F 75% 30.27 in 7.0 mi NNW 9.2 mph - 0.00 in Snow Light Snow
8:53 AM 26.1 °F 17.6 °F 19.9 °F 78% 30.29 in 4.0 mi NW 8.1 mph - 0.00 in Snow Light Snow
9:07 AM 26.6 °F 15.2 °F 19.4 °F 74% 30.25 in 2.5 mi NW 13.8 mph - 0.00 in Snow Light Snow
9:14 AM 26.6 °F 15.2 °F 19.4 °F 74% 30.25 in 2.5 mi NW 13.8 mph - 0.00 in Snow Light Snow
9:25 AM 26.6 °F 16.8 °F 21.2 °F 80% 30.26 in 3.0 mi NW 10.4 mph - 0.00 in Snow Light Snow
9:36 AM 26.6 °F 16.2 °F 19.4 °F 74% 30.26 in 3.0 mi NNW 11.5 mph - 0.00 in Snow Light Snow
9:53 AM 26.1 °F 15.6 °F 21.0 °F 81% 30.30 in 2.5 mi NNW 11.5 mph 19.6 mph 0.00 in Snow Light Snow
9:57 AM 26.6 °F 17.5 °F 21.2 °F 80% 30.27 in 3.0 mi NNW 9.2 mph - 0.00 in Snow Light Snow
10:04 AM 26.6 °F 15.7 °F 19.4 °F 74% 30.26 in 3.0 mi NNW 12.7 mph - 0.00 in Snow Light Snow
10:53 AM 27.0 °F 16.7 °F 21.0 °F 78% 30.30 in 4.0 mi NNW 11.5 mph - 0.00 in Snow Light Snow
11:00 AM 26.6 °F 15.2 °F 21.2 °F 80% 30.27 in 5.0 mi NNW 13.8 mph 20.7 mph 0.00 in Snow Light Snow
11:31 AM 28.4 °F 17.0 °F 21.2 °F 74% 30.26 in 5.0 mi North 15.0 mph - 0.00 in Snow Light Snow
11:53 AM 28.0 °F 17.5 °F 21.0 °F 75% 30.30 in 5.0 mi North 12.7 mph - 0.00 in Snow Light Snow
12:28 PM 28.4 °F 19.1 °F 21.2 °F 74% 30.27 in 6.0 mi NNW 10.4 mph - 0.00 in Snow Light Snow
12:53 PM 28.9 °F 19.8 °F 19.9 °F 69% 30.30 in 6.0 mi NNW 10.4 mph - 0.00 in Snow Light Snow
1:53 PM 28.0 °F 18.1 °F 19.0 °F 69% 30.29 in 10.0 mi NNW 11.5 mph - 0.00 in   Overcast
2:53 PM 28.0 °F 18.1 °F 19.9 °F 72% 30.30 in 10.0 mi NNW 11.5 mph - N/A   Overcast
3:53 PM 28.9 °F 18.2 °F 19.0 °F 67% 30.30 in 5.0 mi NNW 13.8 mph - 0.00 in Snow Light Snow
4:38 PM 28.4 °F 18.5 °F 19.4 °F 69% 30.27 in 4.0 mi North 11.5 mph - 0.00 in Snow Light Snow
4:49 PM 28.4 °F 19.1 °F 19.4 °F 69% 30.27 in 8.0 mi North 10.4 mph - 0.00 in Snow Light Snow
4:53 PM 28.0 °F 17.5 °F 19.9 °F 72% 30.31 in 7.0 mi North 12.7 mph - 0.00 in Snow Light Snow
5:00 PM 28.4 °F 19.1 °F 19.4 °F 69% 30.27 in 7.0 mi North 10.4 mph - 0.00 in Snow Light Snow
5:53 PM 28.4 °F 18.5 °F 19.4 °F 69% 30.29 in 10.0 mi North 11.5 mph - N/A   Overcast
6:53 PM 28.0 °F 21.7 °F 19.0 °F 69% 30.35 in 10.0 mi North 5.8 mph - N/A   Overcast
7:53 PM 28.4 °F 21.2 °F 19.4 °F 69% 30.32 in 10.0 mi North 6.9 mph - N/A   Overcast
8:27 PM 28.4 °F 19.7 °F 19.4 °F 69% 30.32 in 10.0 mi North 9.2 mph - N/A   Overcast
8:53 PM 27.0 °F 17.3 °F 19.0 °F 72% 30.36 in 10.0 mi North 10.4 mph - N/A   Overcast
9:15 PM 26.6 °F 16.8 °F 19.4 °F 74% 30.33 in 10.0 mi North 10.4 mph - N/A   Overcast
9:53 PM 27.0 °F 18.0 °F 17.1 °F 66% 30.38 in 10.0 mi North 9.2 mph - N/A   Overcast
10:53 PM 26.1 °F 16.2 °F 17.1 °F 69% 30.37 in 10.0 mi NNE 10.4 mph - N/A   Overcast
11:53 PM 25.0 °F 16.3 °F 16.0 °F 69% 30.38 in 10.0 mi North 8.1 mph - N/A   Overcast